Location: Hamilton
(37.7830°S, 175.2830°E)
Time: 00:18:44
(UTC+12:00)

Cosmos 2227 - Pass Details

Date: 24 January 2019
Orbit: 832 x 863 km, 71.0° (Epoch: 19 April)

Event Time Altitude Azimuth Distance (km) Brightness Sun altitude
Rises 21:34:59 0° 202° (SSW) 3,440 8.4 -10.5°
Reaches altitude 10° 21:37:28 10° 200° (SSW) 2,493 7.5 -10.9°
Maximum altitude 21:43:13 80° 113° (ESE) 865 4.2 -11.9°
Enters shadow 21:48:12 13° 26° (NNE) 2,208 5.8 -12.6°
